OEYAS LOWI-LFLJ

Flight info

Callsign OEYAS
Flight time 1h 36m
Altitude 6599
Route 471547N0111741E 471410N0111649E DCT 471240N0110000E/N0169F100 DCT BILDU DCT RONAG DCT 464152N0100523E DCT LSZS DCT ABREG/N0171F110 DCT VP522 DCT 460206N0090704E/N0170F100 DCT LSZA/N0171F110 DCT ARLES DCT VP475 DCT LIMW DCT KUKEV DCT LURAG/N0170F100 DCT VP384 DCT 452635N0063850E
Aircraft DA62/L-G/C

Departure

Time 2026-04-22 09:14
Airport Innsbruck Airport (LOWI)

Arrival

Time 2026-04-22 10:50
Airport Courchevel Altiport (LFLJ)
Time Latitude Longitude Altitude Speed Heading
2026-04-22 08:57 47.25745 11.34603 1901 ft 0 kts 352°
2026-04-22 09:03 47.25754 11.34598 1896 ft 6 kts 317°
2026-04-22 09:03 47.25807 11.34523 1893 ft 13 kts 332°
2026-04-22 09:03 47.25810 11.34424 1901 ft 21 kts 257°
2026-04-22 09:04 47.25779 11.34147 1901 ft 33 kts 259°
2026-04-22 09:04 47.25804 11.33890 1898 ft 14 kts 307°
2026-04-22 09:04 47.25816 11.33867 1898 ft 0 kts 306°
2026-04-22 09:04 47.25819 11.33861 1899 ft 2 kts 306°
2026-04-22 09:05 47.25820 11.33859 1900 ft 0 kts 306°
2026-04-22 09:07 47.25821 11.33858 1900 ft 0 kts 306°
2026-04-22 09:10 47.25831 11.33836 1900 ft 11 kts 306°
2026-04-22 09:11 47.25919 11.33674 1903 ft 18 kts 341°
2026-04-22 09:11 47.25949 11.33744 1899 ft 0 kts 79°
2026-04-22 09:12 47.25984 11.34033 1900 ft 59 kts 80°
2026-04-22 09:12 47.26072 11.34845 1902 ft 97 kts 83°
2026-04-22 09:12 47.26212 11.35914 2013 ft 113 kts 77°
2026-04-22 09:13 47.26452 11.37041 2300 ft 116 kts 75°
2026-04-22 09:13 47.26678 11.38208 2436 ft 126 kts 74°
2026-04-22 09:13 47.26961 11.39542 2431 ft 139 kts 73°
2026-04-22 09:13 47.26907 11.40924 2497 ft 140 kts 117°
2026-04-22 09:14 47.26119 11.41743 2562 ft 144 kts 161°
2026-04-22 09:14 47.25151 11.41892 2824 ft 137 kts 197°
2026-04-22 09:14 47.24377 11.41150 3107 ft 134 kts 232°
2026-04-22 09:14 47.24026 11.39918 3396 ft 130 kts 259°
2026-04-22 09:15 47.23882 11.38634 3677 ft 127 kts 268°
2026-04-22 09:15 47.23864 11.37318 3931 ft 130 kts 270°
2026-04-22 09:15 47.23842 11.35985 4178 ft 132 kts 270°
2026-04-22 09:15 47.23808 11.34601 4548 ft 139 kts 269°
2026-04-22 09:16 47.23759 11.33156 4836 ft 144 kts 270°
2026-04-22 09:16 47.23706 11.31662 5107 ft 148 kts 270°
2026-04-22 09:16 47.23655 11.30126 5334 ft 152 kts 270°
2026-04-22 09:16 47.23549 11.28575 5558 ft 155 kts 253°
2026-04-22 09:17 47.23105 11.27118 5801 ft 157 kts 246°
2026-04-22 09:17 47.22641 11.25663 6093 ft 157 kts 246°
2026-04-22 09:17 47.22180 11.24203 6416 ft 158 kts 246°
2026-04-22 09:17 47.21694 11.22693 6528 ft 171 kts 246°
2026-04-22 09:18 47.21160 11.21056 6540 ft 182 kts 245°
2026-04-22 09:18 47.20629 11.19349 6541 ft 189 kts 246°
2026-04-22 09:18 47.20082 11.17574 6544 ft 192 kts 246°
2026-04-22 09:18 47.19709 11.15688 6536 ft 194 kts 269°
2026-04-22 09:19 47.19847 11.13709 6537 ft 196 kts 283°
2026-04-22 09:19 47.20142 11.11746 6531 ft 197 kts 284°
2026-04-22 09:19 47.20485 11.09793 6523 ft 196 kts 292°
2026-04-22 09:19 47.21195 11.08101 6477 ft 196 kts 316°
2026-04-22 09:20 47.22013 11.06554 6554 ft 192 kts 288°
2026-04-22 09:20 47.22027 11.04680 6796 ft 183 kts 255°
2026-04-22 09:20 47.21615 11.02937 6926 ft 182 kts 248°
2026-04-22 09:20 47.21277 11.01135 6921 ft 187 kts 272°
2026-04-22 09:21 47.21656 10.99317 6916 ft 188 kts 297°
2026-04-22 09:21 47.22287 10.97619 6935 ft 191 kts 300°
2026-04-22 09:21 47.22932 10.95890 6926 ft 195 kts 294°
2026-04-22 09:21 47.23044 10.93916 6907 ft 196 kts 263°
2026-04-22 09:22 47.22824 10.91940 6916 ft 196 kts 261°
2026-04-22 09:22 47.22579 10.89963 6902 ft 195 kts 260°
2026-04-22 09:22 47.22336 10.87999 6912 ft 196 kts 260°
2026-04-22 09:22 47.22087 10.86023 6909 ft 197 kts 259°
2026-04-22 09:23 47.21835 10.84040 6910 ft 196 kts 260°
2026-04-22 09:23 47.21600 10.82172 6903 ft 169 kts 260°
2026-04-22 09:23 47.21389 10.80538 6900 ft 160 kts 259°
2026-04-22 09:23 47.21125 10.78994 7029 ft 153 kts 241°
2026-04-22 09:24 47.20416 10.77898 7029 ft 150 kts 219°
2026-04-22 09:24 47.19611 10.76945 7023 ft 147 kts 218°
2026-04-22 09:24 47.18823 10.76019 7025 ft 143 kts 218°
2026-04-22 09:24 47.18048 10.75101 7021 ft 142 kts 218°
2026-04-22 09:25 47.17280 10.74192 7021 ft 141 kts 218°
2026-04-22 09:25 47.16514 10.73284 7023 ft 142 kts 217°
2026-04-22 09:25 47.15736 10.72361 7033 ft 147 kts 218°
2026-04-22 09:25 47.14877 10.71339 7047 ft 169 kts 218°
2026-04-22 09:26 47.13916 10.70208 7052 ft 184 kts 218°
2026-04-22 09:26 47.12885 10.68996 7048 ft 193 kts 218°
2026-04-22 09:26 47.11724 10.68014 7045 ft 194 kts 202°
2026-04-22 09:26 47.10466 10.67242 7046 ft 198 kts 201°
2026-04-22 09:27 47.09183 10.66473 6907 ft 200 kts 201°
2026-04-22 09:27 47.07887 10.65714 6901 ft 201 kts 201°
2026-04-22 09:27 47.06585 10.64959 6911 ft 202 kts 201°
2026-04-22 09:27 47.05284 10.64178 6908 ft 202 kts 206°
2026-04-22 09:28 47.04074 10.63141 6911 ft 201 kts 212°
2026-04-22 09:28 47.02876 10.62059 6913 ft 202 kts 212°
2026-04-22 09:28 47.01677 10.60963 6912 ft 205 kts 212°
2026-04-22 09:28 47.00471 10.59866 6908 ft 203 kts 212°
2026-04-22 09:29 46.99285 10.58762 6916 ft 202 kts 217°
2026-04-22 09:29 46.98276 10.57316 6902 ft 203 kts 228°
2026-04-22 09:29 46.97328 10.55788 6903 ft 203 kts 229°
2026-04-22 09:29 46.96382 10.54286 6911 ft 204 kts 229°
2026-04-22 09:30 46.95420 10.52747 6914 ft 206 kts 229°
2026-04-22 09:30 46.94426 10.51216 6902 ft 204 kts 221°
2026-04-22 09:30 46.93238 10.50085 6900 ft 204 kts 210°
2026-04-22 09:30 46.92010 10.49068 6897 ft 202 kts 211°
2026-04-22 09:31 46.90800 10.48084 6897 ft 202 kts 210°
2026-04-22 09:31 46.89573 10.47087 6898 ft 202 kts 210°
2026-04-22 09:31 46.88353 10.46102 6913 ft 201 kts 210°
2026-04-22 09:31 46.87117 10.45107 6914 ft 204 kts 210°
2026-04-22 09:32 46.85997 10.43848 6899 ft 204 kts 228°
2026-04-22 09:32 46.85064 10.42310 6902 ft 201 kts 230°
2026-04-22 09:32 46.84148 10.40768 6893 ft 191 kts 230°
2026-04-22 09:32 46.83328 10.39396 6915 ft 182 kts 230°
2026-04-22 09:33 46.82550 10.37880 6900 ft 190 kts 240°
2026-04-22 09:33 46.81854 10.36209 6896 ft 195 kts 240°
2026-04-22 09:33 46.81145 10.34514 6916 ft 197 kts 241°
2026-04-22 09:33 46.80430 10.32793 6919 ft 199 kts 240°
2026-04-22 09:34 46.79712 10.31047 6921 ft 202 kts 242°
2026-04-22 09:34 46.78987 10.29287 6906 ft 202 kts 240°
2026-04-22 09:34 46.78420 10.27430 6901 ft 201 kts 255°
2026-04-22 09:35 46.77804 10.23470 6909 ft 200 kts 259°
2026-04-22 09:35 46.77510 10.21484 6904 ft 201 kts 259°
2026-04-22 09:35 46.77225 10.19517 6998 ft 200 kts 258°
2026-04-22 09:35 46.76948 10.17533 6994 ft 199 kts 259°
2026-04-22 09:36 46.76677 10.15566 6991 ft 197 kts 259°
2026-04-22 09:36 46.76405 10.13607 6990 ft 197 kts 259°
2026-04-22 09:36 46.76129 10.11629 6982 ft 196 kts 259°
2026-04-22 09:36 46.75851 10.09679 6979 ft 196 kts 255°
2026-04-22 09:37 46.75102 10.08052 6967 ft 198 kts 218°
2026-04-22 09:37 46.73835 10.07409 6956 ft 198 kts 185°
2026-04-22 09:37 46.72466 10.07494 6953 ft 198 kts 168°
2026-04-22 09:37 46.71143 10.08055 6955 ft 198 kts 162°
2026-04-22 09:38 46.69831 10.08649 6952 ft 198 kts 168°
2026-04-22 09:38 46.68481 10.08412 6937 ft 199 kts 205°
2026-04-22 09:38 46.67339 10.07284 6942 ft 198 kts 218°
2026-04-22 09:38 46.66283 10.05993 6936 ft 198 kts 223°
2026-04-22 09:39 46.65294 10.04599 6937 ft 198 kts 225°
2026-04-22 09:39 46.64312 10.03198 6935 ft 197 kts 225°
2026-04-22 09:39 46.63334 10.01798 6927 ft 197 kts 225°
2026-04-22 09:39 46.62358 10.00400 6932 ft 197 kts 225°
2026-04-22 09:40 46.61383 9.99008 6930 ft 189 kts 225°
2026-04-22 09:40 46.60499 9.97687 6767 ft 178 kts 232°
2026-04-22 09:40 46.59760 9.96293 6451 ft 176 kts 233°
2026-04-22 09:40 46.59044 9.94911 6247 ft 166 kts 230°
2026-04-22 09:41 46.58440 9.93852 6096 ft 110 kts 230°
2026-04-22 09:41 46.57957 9.93021 5991 ft 107 kts 228°
2026-04-22 09:41 46.57470 9.92233 5897 ft 104 kts 226°
2026-04-22 09:41 46.56944 9.91528 5737 ft 100 kts 211°
2026-04-22 09:42 46.56352 9.90953 5788 ft 104 kts 216°
2026-04-22 09:42 46.55758 9.90368 5855 ft 109 kts 212°
2026-04-22 09:42 46.55088 9.89783 5859 ft 112 kts 212°
2026-04-22 09:42 46.54449 9.89224 5706 ft 104 kts 208°
2026-04-22 09:43 46.53863 9.88755 5607 ft 86 kts 211°
2026-04-22 09:43 46.53470 9.88442 5607 ft 37 kts 214°
2026-04-22 09:43 46.53288 9.88279 5610 ft 33 kts 210°
2026-04-22 09:43 46.53073 9.88106 5604 ft 27 kts 208°
2026-04-22 09:44 46.52975 9.88003 5601 ft 6 kts 307°
2026-04-22 09:44 46.53009 9.87941 5605 ft 10 kts 325°
2026-04-22 09:44 46.53060 9.87937 5602 ft 6 kts 330°
2026-04-22 09:44 46.53062 9.87936 5602 ft 0 kts 328°
2026-04-22 09:46 46.53075 9.87953 5602 ft 9 kts 102°
2026-04-22 09:46 46.53022 9.87968 5608 ft 17 kts 210°
2026-04-22 09:46 46.52976 9.88016 5600 ft 16 kts 120°
2026-04-22 09:46 46.52945 9.88135 5601 ft 20 kts 61°
2026-04-22 09:47 46.53081 9.88257 5604 ft 27 kts 29°
2026-04-22 09:47 46.53259 9.88404 5606 ft 31 kts 28°
2026-04-22 09:47 46.53404 9.88506 5606 ft 8 kts 314°
2026-04-22 09:47 46.53429 9.88395 5610 ft 13 kts 238°
2026-04-22 09:48 46.53229 9.88239 5609 ft 62 kts 209°
2026-04-22 09:48 46.52721 9.87815 5628 ft 100 kts 209°
2026-04-22 09:48 46.52068 9.87292 5727 ft 122 kts 217°
2026-04-22 09:48 46.51410 9.86491 6021 ft 123 kts 220°
2026-04-22 09:49 46.50746 9.85682 6304 ft 126 kts 221°
2026-04-22 09:49 46.50064 9.84859 6585 ft 129 kts 220°
2026-04-22 09:49 46.49328 9.83964 6605 ft 146 kts 221°
2026-04-22 09:49 46.48518 9.82984 6610 ft 156 kts 221°
2026-04-22 09:50 46.47690 9.81980 6790 ft 151 kts 221°
2026-04-22 09:50 46.46898 9.81016 7002 ft 146 kts 221°
2026-04-22 09:50 46.46178 9.80006 7213 ft 143 kts 230°
2026-04-22 09:50 46.45522 9.78922 7433 ft 142 kts 230°
2026-04-22 09:51 46.44869 9.77842 7608 ft 144 kts 230°
2026-04-22 09:51 46.44202 9.76737 7739 ft 147 kts 230°
2026-04-22 09:51 46.43522 9.75610 7877 ft 150 kts 230°
2026-04-22 09:51 46.42835 9.74481 8025 ft 152 kts 230°
2026-04-22 09:52 46.42135 9.73318 8171 ft 154 kts 230°
2026-04-22 09:52 46.41423 9.72144 8317 ft 155 kts 230°
2026-04-22 09:52 46.40702 9.70967 8466 ft 156 kts 229°
2026-04-22 09:52 46.39981 9.69777 8616 ft 158 kts 230°
2026-04-22 09:53 46.39233 9.68549 8617 ft 166 kts 230°
2026-04-22 09:53 46.38462 9.67272 8619 ft 170 kts 230°
2026-04-22 09:53 46.37678 9.65975 8620 ft 173 kts 230°
2026-04-22 09:53 46.36874 9.64667 8619 ft 174 kts 230°
2026-04-22 09:54 46.36075 9.63363 8623 ft 172 kts 229°
2026-04-22 09:54 46.35404 9.61945 8617 ft 172 kts 251°
2026-04-22 09:54 46.35058 9.60293 8617 ft 171 kts 256°
2026-04-22 09:54 46.34724 9.58645 8618 ft 171 kts 256°
2026-04-22 09:55 46.34387 9.56993 8617 ft 172 kts 255°
2026-04-22 09:55 46.34052 9.55332 8619 ft 172 kts 255°
2026-04-22 09:55 46.33776 9.53646 8620 ft 172 kts 260°
2026-04-22 09:55 46.33554 9.51941 8619 ft 173 kts 260°
2026-04-22 09:56 46.33330 9.50235 8619 ft 172 kts 260°
2026-04-22 09:56 46.33103 9.48542 8618 ft 171 kts 261°
2026-04-22 09:56 46.32878 9.46849 8620 ft 171 kts 261°
2026-04-22 09:56 46.32658 9.45158 8622 ft 172 kts 261°
2026-04-22 09:57 46.32437 9.43458 8627 ft 172 kts 260°
2026-04-22 09:57 46.31858 9.41974 8616 ft 177 kts 225°
2026-04-22 09:57 46.30914 9.40803 8614 ft 177 kts 219°
2026-04-22 09:57 46.29760 9.40281 8614 ft 178 kts 178°
2026-04-22 09:58 46.28534 9.40510 8616 ft 178 kts 171°
2026-04-22 09:58 46.27320 9.40790 8617 ft 176 kts 171°
2026-04-22 09:58 46.26114 9.41071 8624 ft 176 kts 171°
2026-04-22 09:58 46.24921 9.41350 8628 ft 176 kts 171°
2026-04-22 09:59 46.23711 9.41633 8624 ft 176 kts 171°
2026-04-22 09:59 46.22504 9.41916 8626 ft 176 kts 171°
2026-04-22 09:59 46.21293 9.42200 8626 ft 177 kts 171°
2026-04-22 09:59 46.20080 9.42159 8618 ft 177 kts 198°
2026-04-22 10:00 46.18992 9.41350 8620 ft 175 kts 212°
2026-04-22 10:00 46.17943 9.40455 8633 ft 175 kts 212°
2026-04-22 10:00 46.16893 9.39565 8636 ft 175 kts 212°
2026-04-22 10:00 46.15834 9.38676 8637 ft 177 kts 212°
2026-04-22 10:01 46.14768 9.37784 8640 ft 177 kts 211°
2026-04-22 10:01 46.13748 9.36800 8637 ft 177 kts 226°
2026-04-22 10:01 46.13050 9.35360 8635 ft 175 kts 240°
2026-04-22 10:01 46.12409 9.33865 8635 ft 175 kts 240°
2026-04-22 10:02 46.11789 9.32348 8637 ft 179 kts 241°
2026-04-22 10:02 46.11149 9.30748 8643 ft 189 kts 241°
2026-04-22 10:02 46.10482 9.29086 8653 ft 194 kts 241°
2026-04-22 10:02 46.09799 9.27389 8658 ft 197 kts 242°
2026-04-22 10:03 46.09107 9.25666 8662 ft 200 kts 241°
2026-04-22 10:03 46.08406 9.23929 8659 ft 201 kts 242°
2026-04-22 10:03 46.07706 9.22190 8667 ft 201 kts 242°
2026-04-22 10:03 46.07015 9.20475 8672 ft 200 kts 241°
2026-04-22 10:04 46.06315 9.18740 8667 ft 201 kts 242°
2026-04-22 10:04 46.05611 9.16997 8668 ft 202 kts 241°
2026-04-22 10:04 46.04904 9.15244 8672 ft 202 kts 241°
2026-04-22 10:04 46.04197 9.13495 8678 ft 201 kts 241°
2026-04-22 10:05 46.03535 9.11726 8675 ft 200 kts 251°
2026-04-22 10:05 46.03227 9.09791 8672 ft 197 kts 261°
2026-04-22 10:05 46.02958 9.07847 8673 ft 198 kts 260°
2026-04-22 10:05 46.02685 9.05889 8680 ft 200 kts 261°
2026-04-22 10:06 46.02413 9.03928 8679 ft 199 kts 262°
2026-04-22 10:06 46.02140 9.01976 8681 ft 198 kts 262°
2026-04-22 10:06 46.01866 9.00035 8681 ft 197 kts 261°
2026-04-22 10:06 46.01597 8.98097 8684 ft 198 kts 260°
2026-04-22 10:07 46.01326 8.96147 8691 ft 199 kts 261°
2026-04-22 10:07 46.01050 8.94186 8692 ft 200 kts 261°
2026-04-22 10:07 46.00774 8.92223 8689 ft 200 kts 261°
2026-04-22 10:07 46.00498 8.90257 8689 ft 201 kts 261°
2026-04-22 10:08 46.00221 8.88291 8690 ft 200 kts 261°
2026-04-22 10:08 45.99947 8.86350 8688 ft 201 kts 261°
2026-04-22 10:08 45.99670 8.84381 8692 ft 201 kts 261°
2026-04-22 10:08 45.99393 8.82422 8688 ft 200 kts 261°
2026-04-22 10:09 45.99116 8.80461 8692 ft 200 kts 261°
2026-04-22 10:09 45.98837 8.78493 8689 ft 201 kts 261°
2026-04-22 10:09 45.98557 8.76522 8692 ft 202 kts 261°
2026-04-22 10:09 45.98276 8.74541 8687 ft 202 kts 261°
2026-04-22 10:10 45.97995 8.72567 8682 ft 201 kts 260°
2026-04-22 10:10 45.97715 8.70603 8681 ft 200 kts 260°
2026-04-22 10:10 45.97436 8.68646 8678 ft 199 kts 260°
2026-04-22 10:10 45.97159 8.66705 8676 ft 198 kts 260°
2026-04-22 10:11 45.96881 8.64761 8673 ft 198 kts 260°
2026-04-22 10:11 45.96604 8.62822 8674 ft 198 kts 260°
2026-04-22 10:11 45.96326 8.60887 8675 ft 198 kts 261°
2026-04-22 10:11 45.96048 8.58947 8670 ft 198 kts 260°
2026-04-22 10:12 45.95770 8.57007 8666 ft 198 kts 261°
2026-04-22 10:12 45.95491 8.55071 8667 ft 198 kts 261°
2026-04-22 10:12 45.95212 8.53135 8666 ft 198 kts 260°
2026-04-22 10:12 45.94932 8.51195 8668 ft 198 kts 261°
2026-04-22 10:13 45.94653 8.49258 8664 ft 198 kts 260°
2026-04-22 10:13 45.94371 8.47315 8665 ft 198 kts 261°
2026-04-22 10:13 45.94093 8.45388 8670 ft 195 kts 259°
2026-04-22 10:13 45.93814 8.43474 8664 ft 196 kts 260°
2026-04-22 10:14 45.93536 8.41553 8667 ft 197 kts 260°
2026-04-22 10:14 45.93258 8.39636 8658 ft 196 kts 260°
2026-04-22 10:14 45.92979 8.37734 8673 ft 195 kts 259°
2026-04-22 10:14 45.92574 8.35893 8671 ft 196 kts 253°
2026-04-22 10:15 45.92119 8.34017 8671 ft 196 kts 253°
2026-04-22 10:15 45.91683 8.32183 8673 ft 197 kts 254°
2026-04-22 10:15 45.91240 8.30320 8539 ft 195 kts 250°
2026-04-22 10:15 45.90807 8.28503 8653 ft 190 kts 250°
2026-04-22 10:16 45.90378 8.26693 8658 ft 193 kts 250°
2026-04-22 10:16 45.89943 8.24867 8661 ft 194 kts 250°
2026-04-22 10:16 45.89503 8.23026 8663 ft 196 kts 250°
2026-04-22 10:16 45.89061 8.21174 8664 ft 197 kts 250°
2026-04-22 10:17 45.88617 8.19311 8665 ft 198 kts 250°
2026-04-22 10:17 45.88170 8.17446 8662 ft 197 kts 250°
2026-04-22 10:17 45.87715 8.15592 8838 ft 197 kts 248°
2026-04-22 10:17 45.86801 8.14119 8692 ft 205 kts 211°
2026-04-22 10:18 45.85467 8.13434 8681 ft 204 kts 192°
2026-04-22 10:18 45.84062 8.13130 8678 ft 204 kts 189°
2026-04-22 10:18 45.82660 8.12871 8677 ft 202 kts 188°
2026-04-22 10:18 45.81269 8.12622 8676 ft 200 kts 188°
2026-04-22 10:19 45.79891 8.12378 8683 ft 200 kts 188°
2026-04-22 10:19 45.78508 8.12121 8683 ft 200 kts 188°
2026-04-22 10:19 45.77122 8.11860 8683 ft 201 kts 188°
2026-04-22 10:19 45.75737 8.11607 8683 ft 201 kts 188°
2026-04-22 10:20 45.74349 8.11352 8684 ft 201 kts 188°
2026-04-22 10:20 45.72960 8.11093 8681 ft 201 kts 188°
2026-04-22 10:20 45.71575 8.10825 8682 ft 200 kts 188°
2026-04-22 10:20 45.70199 8.10558 8686 ft 200 kts 188°
2026-04-22 10:21 45.68829 8.10236 8682 ft 200 kts 199°
2026-04-22 10:21 45.67588 8.09350 8678 ft 199 kts 211°
2026-04-22 10:21 45.66407 8.08361 8681 ft 199 kts 215°
2026-04-22 10:21 45.65263 8.07238 8679 ft 199 kts 217°
2026-04-22 10:22 45.64123 8.06111 8688 ft 199 kts 217°
2026-04-22 10:22 45.62979 8.04978 8687 ft 200 kts 217°
2026-04-22 10:22 45.61832 8.03837 8684 ft 200 kts 217°
2026-04-22 10:22 45.60691 8.02697 8684 ft 200 kts 218°
2026-04-22 10:23 45.59552 8.01559 8684 ft 199 kts 218°
2026-04-22 10:23 45.58423 8.00420 8685 ft 199 kts 217°
2026-04-22 10:23 45.57295 7.99272 8681 ft 199 kts 218°
2026-04-22 10:23 45.56166 7.98137 8681 ft 198 kts 218°
2026-04-22 10:24 45.55036 7.97009 8685 ft 198 kts 218°
2026-04-22 10:24 45.54026 7.95698 8676 ft 196 kts 238°
2026-04-22 10:24 45.53357 7.94011 8681 ft 195 kts 245°
2026-04-22 10:24 45.52735 7.92293 8680 ft 195 kts 245°
2026-04-22 10:25 45.52120 7.90568 8683 ft 195 kts 245°
2026-04-22 10:25 45.51510 7.88840 8681 ft 195 kts 245°
2026-04-22 10:25 45.51239 7.86997 8680 ft 192 kts 278°
2026-04-22 10:25 45.51670 7.85201 8673 ft 192 kts 301°
2026-04-22 10:26 45.52656 7.83949 8681 ft 192 kts 328°
2026-04-22 10:26 45.53827 7.83032 8678 ft 192 kts 331°
2026-04-22 10:26 45.55012 7.82143 8681 ft 192 kts 331°
2026-04-22 10:26 45.56196 7.81262 8686 ft 192 kts 331°
2026-04-22 10:27 45.57386 7.80380 8584 ft 194 kts 332°
2026-04-22 10:27 45.58539 7.79434 8672 ft 190 kts 323°
2026-04-22 10:27 45.59566 7.78221 8679 ft 193 kts 319°
2026-04-22 10:27 45.60575 7.76955 8680 ft 194 kts 318°
2026-04-22 10:28 45.61578 7.75658 8671 ft 195 kts 317°
2026-04-22 10:28 45.62586 7.74349 8684 ft 196 kts 317°
2026-04-22 10:28 45.63263 7.73483 8681 ft 197 kts 320°
2026-04-22 10:28 45.64817 7.72088 8664 ft 198 kts 330°
2026-04-22 10:29 45.66016 7.71126 8680 ft 198 kts 330°
2026-04-22 10:29 45.67202 7.70179 8681 ft 198 kts 330°
2026-04-22 10:29 45.68401 7.69220 8673 ft 197 kts 330°
2026-04-22 10:29 45.69599 7.68259 8665 ft 197 kts 330°
2026-04-22 10:30 45.70407 7.67611 8677 ft 197 kts 330°
2026-04-22 10:30 45.71602 7.66648 8739 ft 198 kts 330°
2026-04-22 10:30 45.72788 7.65612 8680 ft 200 kts 321°
2026-04-22 10:30 45.73606 7.64049 8670 ft 199 kts 289°
2026-04-22 10:31 45.73773 7.62123 8673 ft 198 kts 271°
2026-04-22 10:31 45.73790 7.60155 8674 ft 198 kts 270°
2026-04-22 10:31 45.73794 7.58186 8673 ft 197 kts 270°
2026-04-22 10:31 45.73780 7.56223 8673 ft 198 kts 269°
2026-04-22 10:32 45.73762 7.54254 8663 ft 198 kts 269°
2026-04-22 10:32 45.73742 7.52289 8663 ft 198 kts 269°
2026-04-22 10:32 45.73723 7.50317 8663 ft 198 kts 269°
2026-04-22 10:32 45.73702 7.48350 8598 ft 198 kts 269°
2026-04-22 10:33 45.73682 7.46383 8598 ft 198 kts 269°
2026-04-22 10:33 45.73661 7.44416 8598 ft 198 kts 269°
2026-04-22 10:33 45.73640 7.42447 8598 ft 198 kts 269°
2026-04-22 10:33 45.73620 7.40477 8598 ft 198 kts 269°
2026-04-22 10:34 45.73558 7.38512 8597 ft 198 kts 262°
2026-04-22 10:34 45.73250 7.36594 8557 ft 197 kts 255°
2026-04-22 10:34 45.72902 7.34704 8591 ft 197 kts 255°
2026-04-22 10:34 45.72551 7.32806 8600 ft 198 kts 255°
2026-04-22 10:35 45.72198 7.30901 8592 ft 198 kts 255°
2026-04-22 10:35 45.71844 7.28992 8600 ft 199 kts 255°
2026-04-22 10:35 45.71493 7.27101 8595 ft 199 kts 255°
2026-04-22 10:35 45.71136 7.25181 8600 ft 199 kts 255°
2026-04-22 10:36 45.70781 7.23269 8600 ft 199 kts 255°
2026-04-22 10:36 45.70425 7.21353 8604 ft 199 kts 255°
2026-04-22 10:36 45.69833 7.19584 8627 ft 200 kts 227°
2026-04-22 10:36 45.68720 7.18392 8631 ft 200 kts 212°
2026-04-22 10:37 45.67537 7.17341 8632 ft 201 kts 211°
2026-04-22 10:37 45.65015 7.15717 8754 ft 195 kts 200°
2026-04-22 10:37 45.63747 7.15092 8906 ft 191 kts 200°
2026-04-22 10:38 45.62484 7.14506 9065 ft 190 kts 200°
2026-04-22 10:38 45.61221 7.13947 9201 ft 190 kts 199°
2026-04-22 10:38 45.59963 7.13383 9345 ft 187 kts 199°
2026-04-22 10:38 45.58724 7.12845 9529 ft 185 kts 199°
2026-04-22 10:39 45.57500 7.12315 9720 ft 183 kts 199°
2026-04-22 10:39 45.56282 7.11799 9958 ft 181 kts 198°
2026-04-22 10:39 45.55062 7.11389 10205 ft 182 kts 187°
2026-04-22 10:39 45.53792 7.11575 10450 ft 186 kts 174°
2026-04-22 10:40 45.52516 7.11614 10680 ft 182 kts 201°
2026-04-22 10:40 45.51549 7.10587 10908 ft 170 kts 242°
2026-04-22 10:40 45.51137 7.09052 11171 ft 165 kts 258°
2026-04-22 10:40 45.50844 7.07472 11380 ft 162 kts 259°
2026-04-22 10:41 45.50555 7.05966 11651 ft 157 kts 259°
2026-04-22 10:41 45.50223 7.04475 11884 ft 159 kts 249°
2026-04-22 10:41 45.49593 7.03138 12168 ft 165 kts 242°
2026-04-22 10:41 45.48945 7.01825 12407 ft 160 kts 241°
2026-04-22 10:42 45.48309 7.00572 12601 ft 159 kts 244°
2026-04-22 10:42 45.48095 6.99038 12614 ft 161 kts 278°
2026-04-22 10:42 45.48281 6.97406 12623 ft 173 kts 282°
2026-04-22 10:42 45.48502 6.95700 12611 ft 180 kts 282°
2026-04-22 10:43 45.48729 6.93931 12616 ft 184 kts 282°
2026-04-22 10:43 45.48908 6.92122 12610 ft 185 kts 277°
2026-04-22 10:43 45.48883 6.90290 12615 ft 188 kts 265°
2026-04-22 10:43 45.48588 6.88467 12639 ft 190 kts 258°
2026-04-22 10:44 45.48198 6.86653 12617 ft 192 kts 257°
2026-04-22 10:44 45.47804 6.84832 12534 ft 189 kts 258°
2026-04-22 10:44 45.47436 6.83089 12377 ft 179 kts 258°
2026-04-22 10:44 45.47090 6.81437 12217 ft 167 kts 258°
2026-04-22 10:45 45.46773 6.79922 12062 ft 152 kts 258°
2026-04-22 10:45 45.46487 6.78541 11873 ft 136 kts 257°
2026-04-22 10:45 45.46239 6.77369 11722 ft 119 kts 259°
2026-04-22 10:45 45.46009 6.76261 11562 ft 114 kts 259°
2026-04-22 10:46 45.45787 6.75195 11404 ft 111 kts 259°
2026-04-22 10:46 45.45574 6.74176 11254 ft 104 kts 259°
2026-04-22 10:46 45.45380 6.73247 10972 ft 98 kts 259°
2026-04-22 10:46 45.45187 6.72323 10650 ft 97 kts 258°
2026-04-22 10:47 45.44822 6.71457 10219 ft 112 kts 233°
2026-04-22 10:47 45.44298 6.70664 9764 ft 109 kts 232°
2026-04-22 10:47 45.43809 6.69935 9338 ft 98 kts 231°
2026-04-22 10:47 45.43344 6.69220 8737 ft 103 kts 232°
2026-04-22 10:48 45.42900 6.68409 8176 ft 105 kts 234°
2026-04-22 10:48 45.42470 6.67618 7828 ft 97 kts 235°
2026-04-22 10:48 45.42020 6.66870 7528 ft 101 kts 230°
2026-04-22 10:48 45.41551 6.66135 7272 ft 98 kts 230°
2026-04-22 10:49 45.41084 6.65443 6941 ft 97 kts 227°
2026-04-22 10:49 45.40618 6.64743 6724 ft 98 kts 226°
2026-04-22 10:49 45.40154 6.64063 6479 ft 93 kts 226°
2026-04-22 10:49 45.39751 6.63497 6584 ft 53 kts 224°
2026-04-22 10:50 45.39605 6.63312 6658 ft 13 kts 190°
2026-04-22 10:50 45.39579 6.63341 6658 ft 0 kts 76°